Wind_Speed
34 33 32 30 29 29 29 28 27 27 27 27 27 26 26 24 21 18 17 17 17 17 18 18 18 16 15 14 12 11 9 8 7 5 3 3 4 5 6 7 8 10 10 12 13 14 16 17 17 18 17 18 19 20 21 22 23 25 26 28 29 29 32 35 39 47 52 51 51 53 54 54 56 57 58 61 63 64 64 63 63 64 64 64 64
33 32 31 29 28 27 27 27 27 28 28 28 27 26 24 21 19 18 18 19 19 20 20 20 18 16 15 14 12 11 10 8 7 5 3 4 4 5 7 8 9 10 12 13 14 15 17 17 17 18 18 19 20 21 23 23 24 26 27 28 30 30 32 34 38 44 51 54 54 54 55 55 56 57 58 60 61 63 65 65 63 63 63 63 63
30 29 28 27 26 26 26 26 27 28 27 27 26 24 22 20 20 20 20 21 22 22 21 19 18 16 15 14 12 11 10 8 6 5 4 4 5 6 7 9 10 11 13 14 15 16 17 17 18 18 19 20 21 23 24 25 26 27 28 29 31 32 32 34 37 41 48 53 55 55 56 57 57 57 58 58 59 60 62 63 62 62 63 63 63
27 27 26 25 25 25 25 25 25 26 26 26 25 24 22 21 21 22 22 23 23 23 21 19 17 16 15 14 13 11 10 8 6 5 5 5 6 7 8 9 11 12 14 15 16 16 17 18 19 19 20 21 22 23 24 26 27 28 29 31 32 34 34 35 37 39 44 50 53 54 55 56 57 57 57 58 58 58 58 59 60 61 61 62 61
26 26 25 25 25 25 25 25 26 26 26 25 24 23 23 23 23 24 24 25 24 23 21 19 18 17 16 14 12 11 9 8 7 6 5 6 6 7 9 10 12 13 15 16 17 17 18 19 20 20 21 22 23 24 25 27 28 29 30 32 34 35 36 37 38 39 41 46 50 53 54 54 56 57 55 55 57 57 56 58 60 60 61 63 62
27 26 26 26 26 26 26 27 27 26 25 24 24 24 24 24 25 25 25 25 24 22 21 20 19 17 16 14 12 11 9 8 7 7 6 6 7 8 9 11 13 14 15 16 17 18 19 19 21 22 22 23 24 25 26 28 29 31 33 35 36 37 37 38 38 39 41 44 47 50 53 53 55 56 55 53 54 55 55 57 59 59 60 62 63
26 26 26 26 26 27 27 26 25 24 24 25 25 25 26 26 26 27 26 25 23 22 21 20 19 17 15 14 12 11 10 9 8 7 6 7 7 9 10 12 14 15 16 17 17 18 19 20 21 22 23 25 26 27 28 29 31 33 34 36 36 37 38 38 39 40 42 44 46 48 51 53 53 54 54 54 53 53 52 53 58 59 58 59 61
25 25 25 26 26 26 26 25 24 25 25 26 26 27 27 27 28 27 26 25 23 22 21 19 18 17 15 13 12 11 10 9 8 7 7 7 8 10 11 12 13 15 16 17 18 18 19 21 22 23 24 25 27 28 29 31 33 34 35 35 36 36 38 39 40 41 43 45 47 47 50 53 52 52 53 54 54 54 52 51 54 57 56 56 57
25 25 25 26 26 26 26 26 26 26 27 27 28 28 28 29 29 28 26 25 24 22 21 19 18 16 15 13 13 12 11 9 8 7 7 8 9 11 12 12 13 15 16 17 18 19 20 21 22 24 25 26 27 28 29 31 33 34 35 35 36 37 38 39 40 42 44 45 47 47 49 52 52 50 51 52 51 52 52 50 51 53 54 54 55
25 25 26 26 26 27 27 28 28 28 28 29 29 29 29 30 29 28 27 25 24 23 21 20 18 16 15 14 13 12 10 9 8 8 8 9 11 11 12 13 14 15 16 17 18 20 21 22 23 24 25 26 27 28 30 31 32 33 33 34 35 37 38 40 40 41 42 45 46 45 46 50 51 48 47 49 49 50 50 50 51 52 53 55 55
26 26 27 27 27 28 28 29 29 29 29 29 30 30 30 30 29 28 27 26 25 23 22 20 18 16 16 15 14 12 10 9 9 9 9 10 11 12 13 14 15 16 17 18 19 21 22 23 23 24 25 26 27 29 30 30 31 32 33 33 34 35 36 38 40 40 41 42 44 43 42 45 48 47 45 47 47 48 49 48 48 50 52 53 55
27 27 27 28 28 29 29 29 29 30 31 31 31 32 31 30 29 28 27 26 25 23 21 19 18 17 17 15 14 12 11 10 10 9 10 10 11 12 14 15 16 17 19 20 21 22 23 23 24 24 25 27 28 29 30 30 31 32 33 33 34 34 34 35 36 38 38 39 42 43 41 41 45 46 44 44 44 46 47 47 46 48 50 50 51
28 28 28 28 29 29 29 30 30 31 32 32 32 32 31 30 30 28 27 26 24 23 21 20 19 18 17 15 13 12 11 10 10 10 10 11 12 13 15 16 17 18 20 21 22 24 24 24 24 25 26 27 28 29 31 32 32 33 33 34 34 34 34 33 33 33 34 35 39 42 40 38 41 43 42 39 40 42 44 45 46 46 47 47 48
29 29 29 29 29 29 29 31 32 32 33 33 33 32 31 31 29 28 27 25 24 22 21 20 19 18 16 15 13 12 11 10 10 10 10 11 13 14 16 17 18 20 21 22 24 25 25 26 26 26 27 27 28 30 31 33 33 33 34 34 34 34 34 34 34 33 33 33 35 39 40 38 39 41 40 36 36 38 41 43 43 42 43 45 45
30 29 29 29 29 30 31 32 33 34 34 34 33 33 32 31 30 28 27 25 23 22 22 20 19 18 16 15 14 12 11 10 10 10 11 12 14 15 17 18 20 21 22 23 24 25 26 26 27 27 27 28 29 30 32 33 33 34 35 35 36 36 35 35 35 35 35 34 34 37 39 38 39 40 37 34 34 36 36 37 38 38 40 42 43
31 31 31 31 31 32 32 33 34 34 34 34 34 33 32 31 30 29 27 26 24 23 22 21 19 18 16 15 14 12 11 10 10 10 11 13 14 16 18 20 21 22 22 23 24 25 26 27 27 27 28 28 29 30 31 32 33 35 36 37 37 37 36 36 36 36 36 35 35 37 38 39 40 39 37 36 34 32 32 35 36 36 38 40 41
33 33 33 33 32 33 34 34 35 35 35 35 34 34 33 31 30 29 28 26 25 24 23 21 19 18 17 15 14 12 11 10 10 11 12 14 15 17 19 21 22 22 23 23 24 25 25 27 27 27 28 28 29 29 30 32 33 35 37 38 39 39 39 38 38 37 37 37 37 38 39 41 41 40 39 36 29 26 30 34 35 35 36 38 39
35 34 34 33 33 33 34 34 35 36 36 36 35 34 33 32 30 29 28 27 26 25 23 21 20 18 17 15 13 12 11 10 11 12 13 15 16 18 20 22 23 23 23 23 24 24 25 26 26 27 27 28 28 28 30 32 33 35 37 39 40 41 41 41 42 41 41 40 40 41 41 42 42 42 42 38 31 28 29 30 31 33 35 37 39
35 34 34 33 33 34 35 35 36 36 36 36 35 34 33 32 31 29 28 27 25 24 23 21 20 18 17 15 13 11 10 10 11 13 15 16 18 20 21 23 23 24 24 24 24 25 25 25 25 26 26 26 27 28 29 31 32 34 35 37 39 40 41 41 42 44 44 44 44 44 43 44 44 44 43 41 37 34 30 28 29 31 34 37 39
34 34 34 33 34 35 36 36 37 37 37 36 35 34 33 32 31 30 29 28 26 24 23 22 20 18 16 15 13 11 11 11 12 14 16 17 19 21 23 24 24 25 25 25 25 25 24 24 24 24 25 25 26 27 28 29 30 31 32 34 36 38 39 40 40 41 42 43 43 43 44 45 45 44 43 41 39 36 33 30 28 27 31 36 38
34 35 35 35 35 36 37 37 38 37 37 36 35 34 33 32 32 31 30 28 27 25 23 22 20 18 17 15 13 11 11 11 13 15 17 18 20 22 23 25 25 25 25 25 25 24 24 24 24 24 24 25 26 27 27 28 28 29 30 31 33 34 35 37 37 38 39 40 41 42 43 45 45 45 43 41 39 36 34 32 29 27 29 33 36
36 36 36 36 37 37 38 38 38 38 38 37 36 35 34 33 32 30 29 28 26 25 23 22 21 19 17 15 13 11 11 12 14 16 18 19 21 23 24 25 26 26 26 25 25 24 24 24 24 24 24 25 25 26 27 27 27 28 28 29 30 31 32 34 35 37 37 38 39 41 42 44 45 45 44 42 39 36 33 32 32 30 29 29 31
37 37 37 37 37 38 39 39 39 39 39 38 37 35 34 33 32 30 29 28 26 25 24 23 21 19 17 14 12 11 11 13 15 17 19 21 22 24 24 25 26 26 26 25 24 24 24 24 23 24 24 24 25 25 25 25 26 26 27 28 29 30 31 32 34 35 35 36 38 40 41 43 44 44 43 41 39 36 33 32 32 31 31 30 30
37 37 38 38 38 39 40 40 41 40 39 38 37 35 34 33 32 31 30 28 27 26 24 23 21 18 16 13 11 11 12 14 16 19 20 22 23 23 24 25 25 26 25 24 23 23 23 24 24 24 24 24 24 24 24 24 25 26 26 28 29 30 31 32 32 33 34 35 37 38 40 41 42 42 41 40 39 36 33 31 30 30 31 31 30
36 37 37 38 39 39 40 41 41 40 39 38 37 36 35 34 33 32 30 29 28 26 25 23 20 17 14 12 12 13 14 16 19 21 22 22 23 23 24 24 24 24 23 22 22 22 23 23 23 23 23 23 23 23 24 24 25 26 26 27 28 29 30 31 32 33 34 35 36 38 39 40 41 41 41 40 39 36 33 32 31 30 30 31 30
33 35 37 38 39 40 41 41 41 41 40 38 36 35 34 34 33 32 31 30 29 27 25 23 20 17 15 14 14 14 16 19 22 23 23 23 22 23 23 23 23 23 22 21 21 22 22 23 23 23 23 23 23 24 24 24 25 25 26 26 27 29 30 31 32 33 34 35 36 37 39 40 41 41 41 40 39 36 34 33 32 32 31 32 33
30 33 35 37 39 40 41 42 42 41 40 39 37 36 35 34 33 32 31 30 29 27 25 22 19 17 16 16 16 17 19 23 24 24 24 22 22 22 22 22 22 22 21 21 21 22 22 22 22 22 22 22 23 23 23 24 24 24 25 26 27 28 30 31 32 33 34 34 35 36 38 40 41 42 42 41 40 37 34 31 31 32 33 33 33
28 31 33 36 38 40 41 42 42 42 41 40 38 37 36 35 34 32 31 30 28 26 23 20 18 18 18 17 18 20 23 26 26 25 24 22 21 21 22 22 21 21 21 22 22 22 22 21 21 21 21 21 21 22 22 22 23 23 24 25 26 28 29 30 31 32 33 34 35 37 38 40 41 42 42 42 41 39 35 32 30 31 32 32 33
26 29 32 35 38 40 42 42 42 42 41 40 38 38 37 35 34 32 31 29 27 25 23 21 21 20 20 19 21 24 27 28 27 25 22 20 21 22 22 22 21 21 22 22 21 21 20 20 20 20 21 21 22 23 23 23 23 23 24 25 26 27 28 29 31 32 33 34 35 37 38 40 40 41 42 42 41 39 36 33 31 31 32 32 31
25 27 30 33 37 40 41 42 42 41 41 40 39 39 38 36 35 33 31 30 29 27 26 25 24 23 22 23 25 28 29 29 27 24 20 19 21 22 22 22 22 22 21 21 20 20 19 19 20 21 22 23 24 25 25 25 25 25 24 24 26 27 28 29 31 32 33 34 35 36 38 39 40 41 42 42 41 39 37 34 31 30 31 31 30
24 26 29 32 35 38 40 41 42 41 41 40 40 39 39 38 36 35 34 33 32 30 29 28 27 26 26 27 29 29 29 28 26 22 19 20 22 22 22 22 22 22 21 20 19 19 19 19 21 22 23 24 25 25 26 26 26 26 25 24 25 26 27 29 30 31 33 34 35 36 37 38 40 40 40 40 40 39 37 35 32 30 30 29 28
23 25 27 30 33 37 40 41 42 42 42 41 41 40 40 39 38 38 37 36 34 33 32 31 30 29 28 29 29 29 28 27 25 21 20 21 22 22 22 22 22 21 20 19 19 19 19 20 21 22 23 24 24 24 25 25 25 25 25 25 25 26 27 28 29 30 32 33 35 36 36 37 38 39 38 38 38 38 37 35 33 31 30 28 26
22 23 25 28 32 36 39 41 42 42 42 42 42 41 41 40 40 39 38 37 36 35 34 33 32 31 30 29 29 28 28 27 25 22 20 21 22 21 21 21 21 20 19 18 18 18 19 20 21 22 23 23 24 23 24 24 24 24 24 25 26 26 26 27 28 29 30 31 33 34 35 36 37 38 37 37 36 35 34 33 31 30 30 29 26
21 23 25 27 30 34 38 40 41 41 41 42 42 41 41 41 40 40 39 38 37 36 35 34 33 32 31 30 29 29 29 27 25 23 21 21 21 21 21 21 20 19 18 18 18 18 18 19 20 21 22 22 23 23 23 23 23 23 23 24 24 25 25 26 27 27 29 30 31 33 34 35 37 38 37 36 35 34 32 30 29 29 29 28 26
21 23 25 27 30 33 36 39 40 41 41 41 41 41 41 40 40 40 39 38 37 36 35 34 32 32 31 30 30 30 29 27 24 23 22 21 21 21 20 21 21 20 18 18 17 17 17 18 19 20 21 21 21 21 22 22 22 23 23 23 24 24 25 26 26 27 28 29 30 32 33 34 36 37 36 35 34 32 31 29 28 27 26 26 25
21 23 25 28 30 33 35 38 39 40 40 40 40 40 40 40 40 40 39 38 37 36 35 34 32 31 32 31 31 31 29 26 24 24 23 21 20 20 20 21 21 20 19 18 17 16 17 18 18 19 20 20 20 20 21 21 21 22 22 23 23 24 25 25 26 27 28 28 30 31 32 33 35 36 36 34 32 30 28 26 26 25 24 24 23
20 22 24 27 29 32 34 36 38 39 39 40 40 41 41 41 41 40 40 39 39 38 37 36 34 34 34 33 32 31 28 26 25 24 23 21 20 20 21 22 21 20 18 17 16 16 17 17 18 18 19 19 19 19 19 20 21 21 21 22 22 23 24 24 25 26 27 28 29 30 30 31 33 35 36 34 32 29 26 25 24 24 23 22 21
20 22 24 27 29 32 34 35 37 38 39 40 40 41 41 42 42 41 41 41 40 40 39 38 37 36 35 34 32 30 28 26 26 26 24 22 20 21 22 23 21 20 18 17 15 15 16 17 17 18 18 18 19 19 19 20 20 21 21 21 21 22 23 23 23 24 25 26 27 28 29 30 31 33 34 33 31 28 25 24 23 24 23 21 19
20 22 24 27 29 32 34 35 37 38 39 40 41 42 42 43 43 42 43 42 42 42 41 40 39 38 36 34 32 30 29 28 27 26 24 22 22 23 24 23 21 20 18 17 16 16 16 16 16 17 17 18 18 19 20 20 20 21 22 22 21 22 22 23 23 23 24 24 26 27 28 29 30 31 33 32 30 27 25 23 22 22 22 21 18
21 22 24 26 29 32 34 36 37 38 39 40 41 42 43 44 44 44 44 44 44 43 43 42 41 39 36 34 33 31 30 29 27 25 24 23 24 25 25 23 21 20 19 17 17 16 16 15 16 16 17 18 19 19 20 21 21 22 22 22 22 22 23 23 24 24 23 24 25 26 27 28 29 30 32 32 30 26 24 23 22 21 20 19 16
21 22 23 25 27 30 33 36 37 38 40 41 42 42 43 43 44 44 45 45 45 45 44 43 40 38 35 34 33 31 30 28 27 26 25 25 26 27 26 23 22 21 19 19 18 17 16 15 16 16 17 17 18 19 20 21 22 22 23 22 22 23 23 24 24 24 23 23 23 25 26 27 28 29 30 31 30 26 23 21 20 19 18 16 14
22 23 23 24 26 29 32 34 36 37 39 41 42 42 43 43 44 45 46 46 46 45 44 42 40 37 35 34 33 32 31 29 28 27 27 27 28 27 26 24 23 21 20 20 19 18 16 16 16 16 17 17 18 19 20 21 22 23 23 23 23 23 23 24 24 24 24 23 22 23 25 26 26 27 28 29 30 27 23 21 20 18 16 14 11
21 22 24 25 26 28 30 32 34 37 39 41 42 43 44 44 45 46 46 46 46 45 44 42 39 37 36 35 35 34 33 32 30 29 29 29 28 27 26 24 23 22 21 20 20 19 18 16 16 16 17 17 18 19 19 20 22 23 23 24 23 23 24 24 25 25 25 24 23 22 23 24 25 25 26 27 28 27 23 20 19 17 15 13 10
20 21 23 25 26 28 29 31 33 36 38 40 42 44 44 45 46 46 46 46 46 45 43 41 39 37 37 37 36 36 35 33 32 31 30 29 28 27 25 25 24 23 22 21 21 20 19 17 16 16 16 17 18 18 19 20 21 23 24 25 24 24 24 25 25 25 26 25 24 23 22 23 24 24 24 25 26 26 24 20 18 16 13 10 8
19 20 22 23 25 27 29 31 33 35 37 39 41 43 44 45 46 46 46 46 45 44 43 42 40 39 39 39 38 38 37 35 32 31 30 29 28 26 25 25 25 24 22 22 22 21 20 19 18 17 16 16 17 18 18 19 21 22 24 25 25 25 25 25 25 25 25 26 25 24 23 22 23 23 23 23 24 25 24 20 17 15 12 9 7
19 20 21 22 24 25 27 29 31 33 36 38 40 42 43 45 46 46 46 46 45 44 44 43 42 41 41 41 40 39 37 35 33 31 30 29 27 26 26 26 25 24 22 22 22 22 20 20 19 18 16 16 16 17 18 19 20 22 23 24 25 25 25 25 25 25 25 25 25 24 23 22 21 22 22 21 21 23 22 19 16 13 11 7 5
20 21 22 22 24 25 26 28 30 32 34 36 39 41 42 44 45 45 46 46 45 45 44 43 43 43 42 42 41 39 37 35 33 31 30 29 28 27 27 26 25 24 23 23 22 21 21 20 19 18 18 17 16 16 17 18 19 21 22 23 24 25 25 25 25 25 24 24 24 24 23 22 21 21 21 20 19 20 20 19 15 12 9 6 4
23 23 23 24 25 26 26 28 29 31 33 35 37 39 41 43 44 45 46 46 46 45 44 44 43 43 42 42 41 38 36 34 33 32 31 30 29 28 28 27 25 24 23 23 22 21 21 20 20 19 19 18 17 17 17 18 19 20 21 22 23 24 24 24 24 24 24 24 24 23 23 21 20 20 20 20 19 18 19 18 15 12 9 6 4
25 26 27 27 28 28 28 29 30 31 32 33 35 37 39 41 43 44 45 45 44 44 43 43 43 43 42 42 40 38 36 35 34 33 32 31 30 29 28 27 25 24 24 23 22 21 21 20 20 19 19 19 18 18 18 18 19 20 21 21 22 23 24 24 24 24 24 24 24 23 22 21 20 19 19 19 18 17 17 17 16 13 10 7 5
27 27 28 29 30 30 31 31 32 32 33 34 35 36 37 39 41 43 44 44 43 43 42 43 43 42 41 40 39 37 36 36 35 33 32 31 30 30 28 27 25 25 24 22 21 21 21 20 20 19 19 19 19 19 19 20 20 20 21 21 22 23 23 24 24 23 24 24 24 23 22 21 20 19 18 18 18 17 15 15 15 14 11 9 7
28 29 30 31 32 32 33 34 34 35 35 35 36 36 37 37 38 40 41 42 42 41 40 40 40 40 40 39 38 37 37 36 35 34 33 32 31 30 29 27 26 25 24 22 22 21 21 20 19 19 20 19 19 20 20 20 21 21 21 22 22 23 23 23 23 23 23 23 24 23 22 21 20 19 18 18 18 17 15 15 14 14 13 11 9
Wind_Direction
238 239 239 238 236 232 231 228 224 221 220 222 221 218 219 222 222 219 214 210 208 203 197 193 192 195 199 200 200 201 205 210 216 224 244 283 310 318 319 321 321 322 325 325 326 325 323 322 321 321 321 319 318 318 319 320 322 323 323 323 324 324 323 321 318 316 318 320 322 324 326 327 327 329 330 329 329 329 329 331 331 331 330 328 327
237 237 236 234 232 229 227 224 218 215 216 217 216 216 219 221 216 211 206 204 201 197 194 193 194 197 198 199 202 205 210 215 222 235 255 280 297 308 312 315 318 321 323 322 322 320 319 319 319 320 319 317 316 316 318 319 320 322 322 322 323 323 323 323 321 320 319 320 323 324 326 329 330 332 333 333 332 331 330 331 332 331 330 329 328
234 234 231 228 226 223 221 219 215 214 214 214 215 217 219 215 208 204 202 199 195 192 192 195 196 198 199 202 206 209 215 221 228 240 255 276 294 303 308 313 317 319 319 319 319 318 318 318 318 318 317 315 315 315 317 319 320 322 322 322 323 323 325 325 324 324 322 321 323 325 327 329 331 333 334 334 333 332 331 331 331 331 330 329 329
228 227 225 223 220 218 217 217 216 215 215 216 216 215 210 204 200 200 198 195 193 192 193 195 198 201 203 206 209 213 219 223 230 242 256 275 290 298 306 312 314 316 317 318 319 319 319 318 317 316 315 314 314 315 317 319 320 321 322 322 323 324 326 328 327 327 326 324 324 326 329 330 331 333 334 333 332 332 332 332 332 332 331 330 329
220 220 219 218 217 216 216 217 216 216 215 213 209 204 200 197 197 197 194 192 193 195 196 197 200 203 205 208 212 216 220 225 232 243 257 271 287 300 307 312 314 316 318 318 319 319 318 317 316 314 313 313 314 315 317 318 319 320 321 323 325 326 327 329 329 329 328 327 327 328 330 331 331 333 335 334 333 333 334 333 333 333 331 330 329
214 215 216 217 217 217 216 215 214 211 208 203 198 196 196 196 196 194 192 193 195 196 198 200 202 204 206 210 215 219 222 226 232 242 258 274 292 303 308 313 315 317 318 318 319 318 317 316 314 314 314 315 315 317 318 319 320 322 324 326 327 328 329 330 330 330 330 330 330 331 332 333 333 334 336 336 334 334 335 334 333 333 332 330 329
210 212 214 216 216 215 213 210 207 202 198 196 194 195 195 195 195 193 192 194 197 199 200 202 203 204 209 214 216 218 222 227 235 247 264 281 295 304 309 314 316 316 318 318 317 316 315 315 315 316 316 316 318 319 320 321 323 326 328 329 329 330 330 331 333 334 334 333 333 334 334 334 334 334 335 335 334 335 336 334 332 332 333 332 330
207 208 209 210 209 208 205 202 198 195 195 195 195 196 195 194 193 193 193 194 198 201 203 204 206 208 211 214 216 220 224 229 241 255 271 286 296 304 310 312 314 315 315 315 315 315 315 315 316 316 317 318 320 321 322 324 327 329 330 330 331 331 333 335 336 337 336 335 335 335 334 334 335 335 335 336 335 334 335 333 330 330 332 331 330
202 202 203 202 201 199 197 195 194 194 195 196 197 196 195 193 193 195 195 196 198 201 203 206 209 212 214 215 218 221 226 233 246 260 273 288 296 302 308 309 312 314 313 314 314 315 316 316 316 317 317 319 320 322 325 327 328 330 331 331 333 334 336 338 338 338 337 336 336 336 335 335 336 335 334 335 334 331 331 330 328 328 329 328 328
198 198 197 196 195 193 193 194 195 196 197 198 197 195 194 195 195 196 197 199 201 203 205 208 210 213 216 217 219 222 229 238 251 264 276 288 296 302 307 309 311 312 312 314 315 316 317 316 316 317 317 318 320 323 325 327 329 330 331 333 336 338 339 338 338 339 338 337 336 336 334 334 336 334 331 331 331 328 327 327 325 325 326 325 325
194 194 194 193 192 193 195 197 197 198 198 198 196 196 196 197 197 198 200 201 203 205 208 210 212 215 216 217 220 225 233 243 253 267 279 290 299 305 308 310 311 312 314 315 317 317 317 316 316 316 317 318 320 323 325 327 328 329 332 336 339 340 340 339 339 340 339 337 336 336 334 333 334 333 329 329 329 326 324 323 322 322 323 321 320
193 194 194 194 196 197 199 200 201 200 199 198 197 197 198 198 199 201 202 203 205 207 209 212 214 216 216 218 222 227 235 246 257 272 283 293 302 306 308 310 312 314 316 318 318 317 316 316 316 316 317 318 320 323 325 326 328 331 334 338 340 341 342 340 340 339 338 337 336 337 336 331 331 332 330 327 325 324 324 322 320 318 317 317 316
197 198 199 200 202 202 203 203 203 202 200 199 198 198 199 200 201 202 204 206 208 209 211 213 214 216 217 219 225 230 238 250 262 276 288 297 303 306 309 312 314 316 319 319 318 317 316 315 315 315 317 319 321 324 325 327 330 333 336 338 340 341 342 341 340 339 338 337 336 338 338 333 330 332 333 329 325 323 322 317 315 315 315 315 314
204 204 205 206 206 206 206 205 205 203 202 200 199 199 200 201 202 204 206 208 210 211 213 214 215 216 219 222 227 233 242 254 267 281 293 299 304 307 310 313 316 319 321 320 318 317 315 314 315 316 319 322 324 326 327 330 333 335 336 339 340 342 343 341 341 340 340 340 338 337 338 336 332 332 335 333 325 318 315 313 314 316 315 313 311
211 210 210 210 210 210 209 207 206 205 203 202 200 201 202 203 204 206 208 210 212 213 215 216 216 218 221 225 231 237 247 259 272 286 295 300 305 310 312 316 319 321 321 319 317 315 314 315 316 319 323 326 328 329 330 332 334 335 337 339 341 343 343 340 339 339 340 341 339 337 337 337 335 335 334 329 321 317 317 316 316 316 315 313 311
215 215 214 214 213 212 211 209 208 207 205 203 202 203 204 205 206 208 209 210 212 213 214 215 217 219 223 227 233 241 252 264 276 288 297 303 307 312 315 318 320 320 319 317 315 314 315 316 318 322 326 328 331 332 333 333 334 335 336 338 341 342 341 338 338 339 339 340 338 336 336 337 338 336 330 325 324 325 321 316 317 320 321 320 319
218 218 217 217 216 214 213 211 210 209 207 206 205 206 206 207 209 211 212 212 213 214 215 216 217 220 224 229 235 244 255 267 280 291 300 306 310 314 317 317 317 317 316 314 314 314 315 317 320 324 327 330 333 334 334 334 335 336 336 337 340 341 339 338 338 339 339 338 337 337 339 340 340 335 331 330 330 324 319 321 327 331 329 325 323
221 220 219 219 217 216 215 214 213 211 210 209 208 208 208 209 210 212 213 215 215 215 216 217 218 221 224 230 237 247 258 271 285 296 303 308 312 315 315 314 315 314 313 313 313 314 316 319 322 325 328 332 334 335 335 336 337 338 338 339 339 339 338 338 338 338 337 336 337 340 342 341 338 335 336 336 332 326 330 336 339 337 332 328 327
225 223 222 221 220 219 217 215 214 213 212 211 211 211 211 211 211 212 212 214 216 216 216 217 219 222 226 231 238 248 261 275 288 298 304 309 312 312 312 312 312 312 312 312 313 315 318 321 324 327 330 333 334 336 338 339 339 340 340 338 337 337 337 337 337 336 335 335 337 339 340 340 339 340 340 338 335 334 338 344 345 341 336 331 329
230 227 225 224 222 221 218 216 215 214 213 213 212 212 213 213 213 213 213 213 214 215 217 218 220 224 228 233 239 249 263 278 291 299 305 308 309 309 309 310 310 310 310 311 313 316 320 323 326 330 332 334 336 338 340 340 340 340 338 336 335 335 336 336 334 333 334 335 337 338 339 340 343 344 342 340 339 337 336 341 348 347 339 333 331
233 230 228 225 223 222 219 217 215 213 213 214 214 214 215 215 215 215 215 215 215 214 216 219 221 225 228 233 240 250 267 283 294 300 303 304 305 306 306 307 308 309 311 312 315 318 321 325 328 331 333 336 338 339 341 341 340 338 335 334 334 333 333 333 333 333 334 335 335 337 340 342 345 346 345 342 341 338 334 336 343 346 343 338 333
234 231 229 226 224 222 219 216 215 213 213 214 215 216 215 214 215 216 217 217 216 216 218 220 222 225 229 234 242 255 274 288 294 297 299 300 301 303 304 305 308 309 311 313 316 319 322 326 329 332 335 338 340 341 341 340 338 336 334 333 333 332 332 333 333 334 334 334 335 338 342 345 347 348 347 344 342 339 336 336 338 341 343 341 335
236 233 230 227 224 222 219 216 215 214 214 214 215 216 216 215 215 216 217 217 217 218 219 221 223 227 230 235 247 265 280 287 290 293 294 296 298 299 301 304 307 308 310 313 317 320 323 326 330 333 336 339 341 341 341 339 336 335 334 334 334 334 334 334 333 334 334 335 337 340 344 348 350 350 349 345 342 340 338 338 338 338 339 340 338
236 233 230 228 224 221 219 216 215 215 214 215 215 216 217 218 218 217 217 217 218 220 221 223 225 227 231 239 255 272 280 283 285 287 288 290 293 296 300 303 305 307 310 314 318 321 325 328 331 334 336 339 341 341 339 337 336 336 336 336 336 335 334 334 334 335 335 337 339 342 346 350 352 352 350 347 344 341 339 338 339 339 338 339 339
238 234 231 228 225 221 219 216 216 216 215 216 216 216 218 219 219 219 219 218 219 221 222 225 226 228 234 248 264 273 277 278 280 281 283 286 290 295 299 301 303 306 310 315 319 323 326 329 330 332 336 339 340 340 337 336 337 337 337 336 335 334 334 335 337 337 338 339 341 343 346 350 352 353 351 349 346 342 338 337 338 340 339 337 337
241 237 233 229 225 222 219 217 216 216 216 217 217 218 221 222 222 222 221 220 221 221 223 225 227 230 242 257 266 271 272 274 275 277 279 283 288 293 296 299 302 306 310 315 320 323 324 326 328 332 336 338 338 337 336 336 337 337 336 335 335 335 337 339 340 341 341 342 343 344 347 350 352 353 353 351 349 345 341 339 340 342 342 340 339
243 239 235 231 226 223 220 219 217 216 216 217 217 218 220 222 223 223 223 223 223 223 224 226 229 237 250 260 264 267 269 270 271 273 276 281 286 291 295 298 302 306 310 315 318 320 321 324 328 332 336 336 335 333 333 333 335 336 336 337 338 340 341 343 344 345 344 344 344 345 347 350 352 354 354 352 352 350 346 343 343 345 346 345 342
244 241 237 232 228 224 221 220 219 218 218 218 218 219 220 221 223 224 225 226 227 227 228 230 235 246 254 259 262 265 267 268 269 271 274 280 286 291 295 298 301 306 310 313 315 317 320 324 328 331 332 329 327 327 329 331 335 337 339 340 341 342 344 345 347 349 349 348 347 347 348 350 352 354 354 353 354 352 348 346 347 348 348 347 345
244 241 237 233 228 225 222 220 220 220 220 220 220 221 222 223 224 224 225 227 228 230 232 234 239 247 254 257 260 262 263 265 267 268 273 281 289 293 296 298 301 305 308 310 313 316 319 323 325 326 324 322 323 325 329 332 336 340 342 343 342 344 345 347 349 351 351 351 350 350 350 350 351 353 354 353 354 353 350 347 348 350 350 348 346
244 241 238 233 229 226 223 221 220 221 222 222 223 223 222 222 223 224 225 226 228 229 230 233 238 244 248 252 256 258 260 263 265 268 274 284 291 293 295 297 300 303 305 308 311 314 317 320 321 322 322 323 325 327 329 332 336 339 343 344 343 344 346 348 350 351 351 352 352 352 351 350 350 352 353 352 353 353 351 348 348 350 350 348 345
246 243 239 235 231 228 225 224 222 222 222 223 224 225 224 222 222 222 224 226 228 229 231 234 239 242 244 247 251 255 259 263 266 270 278 286 290 290 292 295 298 301 303 305 309 312 315 318 320 322 323 324 325 327 329 332 335 337 340 344 345 346 347 349 350 350 350 351 353 353 352 351 350 352 352 351 351 352 351 348 348 351 351 348 346
249 247 243 238 234 230 227 225 224 224 224 224 224 225 226 226 225 224 225 226 228 230 232 235 239 240 242 246 250 255 261 264 268 273 279 284 285 286 289 293 296 298 299 302 306 310 314 318 320 322 322 322 324 326 329 331 334 335 339 342 345 347 348 348 349 350 349 350 352 352 352 352 351 351 351 350 350 351 351 349 348 350 350 347 346
253 249 245 240 236 232 229 227 227 227 227 227 227 227 228 228 229 229 229 230 230 231 234 237 240 241 242 246 251 255 260 263 268 272 275 277 279 282 286 290 292 293 296 300 304 308 314 317 319 320 320 321 323 325 327 329 331 335 339 342 343 345 347 347 348 348 349 350 351 351 352 352 352 351 351 350 349 349 350 349 347 348 349 348 347
254 250 246 241 238 235 232 231 230 230 230 230 231 231 231 232 233 233 234 235 235 236 237 240 241 243 244 247 251 255 258 262 266 269 270 272 276 281 285 287 288 290 294 298 302 306 312 315 315 316 318 319 321 322 324 327 330 334 338 340 341 343 344 345 346 347 348 349 349 350 352 353 353 351 350 350 349 348 349 350 348 347 348 348 347
253 250 246 242 239 237 236 234 233 232 232 232 233 235 235 236 236 237 239 241 243 244 245 245 246 248 249 250 252 255 258 261 265 266 267 271 275 280 282 284 286 289 292 295 299 304 309 311 312 313 315 316 317 320 324 327 331 334 337 338 340 341 342 344 345 346 348 348 348 349 352 353 354 352 350 350 349 347 348 350 349 347 347 347 347
255 252 248 244 240 238 237 237 236 236 236 236 237 237 238 239 239 240 242 244 246 248 249 249 249 249 250 251 253 254 257 260 263 265 266 269 273 277 279 282 284 287 290 293 297 301 305 307 308 310 311 313 316 320 324 327 331 334 336 337 338 339 341 342 344 345 347 347 347 349 351 353 354 353 351 350 348 347 347 348 346 344 346 347 347
258 256 253 249 246 242 239 239 239 238 239 239 239 240 240 241 242 243 244 245 247 249 250 250 249 249 250 252 253 254 255 258 261 263 264 267 270 274 277 280 282 283 285 288 292 296 300 302 304 306 308 311 315 319 322 326 329 332 334 336 337 337 339 341 342 344 345 345 346 347 350 352 354 353 352 350 348 346 347 346 344 343 345 347 348
258 256 254 251 249 246 243 242 240 240 240 240 241 242 242 242 243 244 245 246 248 249 250 250 251 251 253 254 254 254 254 256 258 261 264 267 269 273 276 277 277 277 279 282 285 288 292 295 299 302 305 309 312 315 318 323 326 328 330 333 335 336 337 338 340 342 343 343 344 346 348 351 354 354 354 351 348 345 345 345 343 343 345 348 350
257 256 254 251 249 247 246 245 243 242 242 242 242 243 243 244 244 245 246 247 248 249 250 251 252 253 254 254 254 253 254 257 260 262 264 267 271 273 274 273 273 273 275 277 279 282 286 290 295 299 302 305 308 312 315 319 322 324 326 329 331 334 335 336 338 340 342 343 343 344 347 350 352 354 355 353 349 346 344 344 344 345 346 348 351
259 259 257 254 252 249 247 246 245 244 244 244 245 245 245 246 246 247 248 248 249 251 252 253 254 255 255 254 255 255 256 257 259 259 261 267 272 273 272 270 269 272 274 275 277 280 283 287 291 294 297 301 305 309 312 315 317 320 322 324 326 329 332 334 336 338 341 343 343 343 345 348 350 352 355 354 351 347 344 342 343 346 347 348 352
260 260 259 258 256 254 251 249 248 247 246 246 246 247 248 249 249 250 250 251 252 253 254 254 255 256 255 254 254 254 254 255 256 257 261 268 272 270 268 268 269 272 273 274 275 278 280 283 287 290 294 298 302 306 309 312 314 316 318 320 323 326 328 330 332 334 337 341 342 341 343 346 349 351 353 353 351 348 344 341 342 346 349 350 354
264 261 259 258 257 256 255 254 254 253 252 251 250 251 251 252 252 252 253 253 254 254 255 255 256 255 254 253 253 253 253 253 254 257 263 268 268 266 266 267 269 270 270 271 273 274 276 279 283 287 291 295 299 303 307 309 312 315 317 319 322 324 324 326 328 330 333 337 340 341 341 344 347 350 351 352 352 348 344 341 342 346 350 351 355
269 266 263 260 258 257 257 257 257 256 256 256 255 255 255 255 255 255 255 255 256 256 256 257 257 255 254 253 252 252 252 252 253 258 264 265 263 262 264 265 266 266 267 269 270 271 272 275 279 284 289 294 297 300 305 308 311 314 316 319 321 323 323 324 325 326 329 333 337 339 340 341 344 347 349 351 351 349 344 340 341 346 351 354 359
273 272 269 266 264 261 259 258 258 258 258 258 258 258 258 257 258 258 258 258 258 258 258 258 257 256 254 252 252 252 252 252 255 259 260 260 259 259 260 261 261 263 264 266 267 269 271 274 277 281 287 291 295 299 304 308 311 314 316 318 321 323 323 323 324 324 325 328 332 336 337 338 340 344 347 349 350 349 345 339 339 343 350 357 5
281 280 278 275 273 269 266 264 262 261 261 261 261 261 261 261 261 262 262 261 261 260 259 258 257 255 253 253 253 253 253 254 255 256 255 255 255 255 254 254 257 259 261 262 264 268 271 275 278 281 285 289 293 299 304 308 311 314 315 317 319 322 323 322 322 322 322 323 326 330 333 333 336 340 343 345 348 348 344 338 335 338 345 355 10
286 285 283 281 279 277 274 271 268 266 264 264 263 264 264 264 264 264 263 262 261 260 258 257 255 253 252 252 252 252 252 252 253 252 252 253 253 251 250 252 254 255 257 259 262 266 270 274 278 281 284 288 293 298 303 306 309 311 313 314 317 319 320 320 320 320 319 319 321 323 326 328 331 334 337 340 343 345 342 336 331 332 336 347 6
292 290 288 285 283 281 279 277 275 272 270 268 266 265 265 265 265 265 264 263 261 259 258 256 254 253 252 252 252 251 251 251 251 250 250 251 251 249 249 250 251 252 254 256 259 264 268 272 277 281 284 288 292 296 300 304 307 308 310 311 313 315 317 317 318 318 317 315 316 317 320 323 325 328 330 333 337 340 340 335 327 323 325 331 348
296 295 294 291 289 287 284 282 279 277 275 274 272 270 268 267 266 265 264 264 263 261 260 258 255 254 253 252 251 250 250 249 249 249 250 250 250 248 248 249 249 250 251 253 257 261 266 270 275 280 284 288 292 296 299 302 304 306 307 308 310 312 313 314 315 316 315 312 311 311 314 317 319 320 323 326 329 332 335 333 326 317 311 310 313
295 295 294 294 293 291 290 287 284 281 279 277 275 273 272 270 269 267 266 265 265 263 261 258 256 254 253 252 251 250 250 250 250 251 251 251 249 248 248 248 248 248 249 251 255 259 263 268 273 278 283 288 292 296 299 301 303 304 305 307 308 310 311 312 313 313 312 310 309 307 308 311 313 313 315 318 321 324 326 327 324 315 303 293 283
292 291 291 291 291 291 290 288 286 285 283 280 278 276 274 272 271 270 268 266 264 263 261 259 257 256 254 253 252 252 251 251 251 251 250 249 248 247 247 247 246 246 247 249 252 257 262 266 271 277 282 287 292 295 298 300 302 303 304 306 307 308 309 310 310 310 309 308 307 305 304 305 307 307 307 308 311 314 316 317 317 312 301 286 272
291 290 289 289 288 288 288 287 286 286 285 283 282 280 278 276 274 272 269 267 265 263 262 261 259 256 254 253 252 250 250 249 249 249 248 247 245 245 245 245 245 244 245 248 252 256 260 264 270 275 281 286 291 294 297 299 301 302 304 305 306 307 307 308 308 307 305 304 304 303 302 301 302 302 302 301 302 305 306 306 307 308 301 288 272
Height
1508 1510 1511 1514 1516 1518 1520 1522 1525 1527 1529 1531 1533 1535 1537 1539 1541 1542 1544 1546 1547 1549 1551 1552 1554 1555 1556 1557 1558 1559 1559 1560 1561 1561 1562 1562 1562 1563 1562 1563 1563 1563 1563 1562 1562 1561 1561 1560 1559 1558 1558 1557 1555 1555 1553 1552 1550 1548 1547 1544 1542 1541 1537 1534 1528 1519 1514 1515 1514 1510 1507 1504 1501 1498 1493 1488 1485 1481 1477 1474 1471 1466 1460 1455 1451
1505 1507 1509 1511 1513 1515 1517 1519 1522 1524 1526 1528 1530 1532 1534 1536 1538 1540 1542 1544 1546 1548 1549 1551 1552 1553 1554 1555 1556 1557 1558 1559 1560 1560 1560 1561 1561 1561 1561 1561 1561 1561 1561 1561 1560 1560 1559 1558 1557 1556 1556 1555 1553 1552 1551 1550 1548 1546 1545 1542 1540 1538 1535 1531 1527 1520 1512 1510 1509 1506 1503 1499 1495 1493 1489 1484 1480 1476 1472 1468 1465 1461 1457 1451 1446
1502 1504 1506 1508 1510 1513 1515 1517 1519 1521 1523 1525 1527 1530 1532 1534 1537 1538 1540 1542 1544 1546 1548 1549 1550 1551 1553 1554 1555 1556 1557 1557 1558 1558 1559 1559 1559 1560 1560 1560 1560 1560 1559 1559 1559 1558 1557 1556 1555 1554 1554 1553 1551 1550 1549 1547 1546 1544 1542 1540 1537 1535 1533 1529 1525 1520 1512 1507 1505 1502 1498 1495 1491 1488 1485 1481 1477 1473 1468 1464 1461 1458 1453 1448 1442
1499 1501 1503 1506 1508 1510 1513 1514 1517 1519 1521 1523 1525 1528 1530 1532 1535 1537 1539 1541 1542 1544 1545 1547 1549 1550 1551 1552 1553 1554 1555 1555 1556 1557 1557 1558 1558 1558 1558 1558 1558 1558 1558 1557 1557 1556 1555 1554 1553 1552 1551 1551 1550 1548 1547 1545 1543 1541 1539 1537 1535 1532 1530 1527 1523 1519 1513 1506 1503 1500 1496 1491 1488 1485 1482 1478 1474 1471 1466 1461 1456 1452 1448 1443 1438
1496 1498 1501 1503 1506 1508 1510 1512 1514 1516 1519 1521 1524 1526 1528 1531 1533 1535 1536 1538 1540 1542 1543 1545 1547 1548 1549 1550 1551 1552 1553 1554 1554 1555 1556 1556 1556 1556 1556 1556 1556 1556 1555 1555 1554 1554 1553 1552 1551 1550 1549 1548 1547 1546 1544 1543 1541 1539 1537 1534 1532 1529 1526 1524 1520 1517 1512 1506 1501 1498 1494 1489 1485 1482 1479 1473 1468 1464 1461 1457 1452 1447 1441 1437 1433
1494 1497 1499 1502 1504 1506 1508 1510 1512 1515 1517 1520 1522 1524 1527 1529 1531 1533 1535 1537 1538 1540 1541 1543 1545 1546 1547 1549 1550 1550 1551 1552 1553 1553 1554 1554 1555 1555 1555 1554 1554 1554 1553 1553 1552 1551 1550 1549 1548 1547 1546 1545 1544 1543 1541 1540 1538 1536 1533 1530 1528 1525 1522 1520 1517 1513 1509 1504 1498 1494 1490 1486 1481 1478 1475 1471 1464 1458 1454 1451 1448 1445 1439 1431 1426
1492 1495 1497 1500 1502 1504 1507 1509 1511 1514 1516 1518 1521 1523 1525 1527 1529 1531 1533 1535 1537 1538 1540 1541 1543 1544 1546 1547 1548 1549 1549 1550 1551 1552 1552 1553 1553 1553 1553 1552 1552 1552 1551 1550 1550 1549 1548 1547 1546 1545 1544 1542 1541 1539 1538 1536 1534 1531 1529 1526 1524 1521 1518 1515 1512 1508 1504 1500 1495 1491 1486 1483 1479 1474 1471 1468 1463 1458 1453 1446 1441 1438 1436 1429 1422
1491 1493 1495 1498 1500 1503 1505 1508 1510 1513 1515 1517 1519 1521 1523 1526 1527 1529 1531 1533 1535 1537 1538 1540 1541 1543 1544 1545 1546 1547 1548 1549 1549 1550 1550 1551 1551 1551 1551 1550 1550 1549 1549 1548 1548 1547 1546 1545 1544 1542 1541 1539 1538 1536 1534 1532 1530 1527 1525 1523 1520 1517 1514 1511 1507 1503 1499 1495 1491 1488 1483 1479 1476 1472 1467 1463 1458 1453 1451 1447 1439 1434 1431 1427 1422
1489 1491 1494 1496 1499 1501 1504 1507 1509 1511 1513 1515 1518 1520 1522 1524 1526 1528 1530 1531 1533 1535 1536 1538 1539 1541 1542 1543 1544 1545 1546 1547 1547 1548 1548 1548 1549 1549 1549 1548 1548 1547 1547 1546 1545 1545 1543 1542 1541 1540 1538 1537 1535 1533 1531 1529 1526 1524 1522 1519 1517 1513 1510 1506 1503 1499 1496 1492 1488 1485 1480 1475 1472 1468 1464 1460 1456 1451 1447 1445 1440 1434 1429 1424 1419
1488 1490 1493 1495 1498 1501 1503 1505 1508 1510 1512 1514 1516 1518 1520 1522 1524 1526 1528 1530 1531 1533 1534 1536 1537 1539 1540 1541 1542 1543 1544 1545 1545 1546 1546 1546 1547 1547 1546 1546 1546 1546 1545 1544 1543 1542 1541 1540 1539 1537 1536 1534 1533 1531 1529 1527 1524 1522 1519 1516 1513 1510 1506 1503 1500 1497 1493 1489 1485 1482 1478 1473 1469 1466 1463 1459 1455 1451 1446 1442 1438 1433 1428 1421 1415
1487 1490 1492 1495 1497 1499 1502 1504 1506 1508 1510 1512 1514 1516 1519 1520 1522 1524 1526 1528 1529 1531 1532 1534 1535 1536 1537 1538 1540 1540 1541 1542 1543 1544 1544 1544 1544 1544 1544 1544 1544 1543 1543 1542 1541 1540 1539 1538 1536 1535 1534 1532 1530 1528 1526 1525 1522 1520 1517 1514 1511 1508 1505 1501 1498 1494 1491 1487 1483 1480 1477 1471 1467 1464 1462 1458 1453 1449 1444 1441 1437 1433 1428 1422 1413
1487 1489 1492 1494 1496 1498 1501 1503 1505 1507 1509 1511 1513 1515 1517 1519 1521 1522 1524 1526 1528 1529 1531 1532 1533 1534 1535 1536 1537 1538 1539 1540 1541 1541 1542 1542 1542 1542 1542 1542 1541 1541 1540 1539 1538 1537 1536 1535 1534 1533 1531 1529 1528 1526 1524 1522 1520 1517 1514 1511 1509 1506 1503 1499 1496 1492 1489 1485 1480 1477 1475 1470 1465 1462 1460 1456 1451 1447 1442 1439 1437 1433 1428 1423 1416
1487 1489 1491 1493 1495 1497 1500 1502 1503 1505 1507 1509 1511 1513 1515 1517 1519 1521 1523 1525 1526 1528 1529 1530 1531 1532 1533 1534 1535 1536 1537 1537 1538 1539 1539 1540 1540 1540 1540 1539 1539 1538 1537 1536 1535 1534 1533 1532 1531 1530 1528 1527 1525 1523 1521 1518 1516 1514 1511 1509 1506 1504 1501 1497 1494 1491 1487 1483 1479 1475 1473 1469 1464 1461 1459 1455 1450 1446 1441 1437 1435 1432 1426 1421 1416
1486 1488 1490 1492 1494 1497 1498 1500 1502 1504 1506 1508 1510 1512 1514 1516 1518 1520 1521 1523 1524 1526 1527 1529 1530 1531 1532 1532 1533 1534 1534 1535 1536 1536 1537 1537 1538 1538 1537 1537 1536 1535 1534 1533 1532 1531 1530 1529 1528 1527 1525 1523 1521 1519 1517 1514 1512 1510 1508 1505 1503 1500 1497 1494 1491 1488 1485 1481 1477 1473 1471 1468 1464 1459 1456 1454 1450 1446 1441 1436 1433 1430 1425 1419 1414
1484 1486 1489 1491 1493 1495 1497 1499 1501 1502 1504 1506 1508 1510 1512 1514 1516 1518 1519 1521 1523 1524 1525 1527 1528 1529 1530 1531 1531 1532 1532 1533 1533 1534 1535 1535 1535 1535 1535 1534 1533 1532 1531 1530 1529 1528 1527 1526 1524 1523 1521 1520 1518 1515 1513 1511 1509 1506 1504 1502 1499 1496 1494 1491 1488 1485 1482 1479 1476 1472 1469 1466 1463 1458 1454 1452 1449 1445 1440 1435 1431 1428 1423 1416 1411
1482 1484 1487 1488 1490 1492 1494 1496 1499 1501 1503 1504 1506 1508 1510 1512 1514 1516 1517 1519 1521 1522 1523 1525 1526 1527 1528 1529 1529 1530 1530 1531 1531 1532 1533 1533 1533 1532 1532 1531 1531 1530 1529 1528 1527 1526 1524 1523 1521 1520 1518 1516 1514 1512 1510 1508 1506 1503 1500 1498 1495 1493 1491 1488 1485 1482 1479 1477 1474 1471 1468 1465 1460 1456 1453 1450 1446 1441 1437 1432 1428 1425 1419 1413 1408
1479 1482 1484 1486 1488 1490 1492 1494 1497 1499 1501 1502 1504 1506 1508 1510 1512 1514 1515 1517 1518 1520 1521 1523 1524 1525 1526 1527 1527 1528 1528 1529 1529 1530 1530 1530 1530 1530 1529 1528 1528 1527 1526 1526 1525 1523 1522 1520 1518 1517 1515 1513 1511 1509 1507 1505 1502 1500 1497 1494 1492 1489 1487 1484 1481 1479 1476 1474 1471 1468 1465 1461 1457 1454 1450 1446 1442 1439 1433 1428 1424 1420 1416 1412 1407
1476 1479 1481 1483 1486 1488 1490 1493 1495 1496 1498 1500 1502 1504 1506 1508 1510 1512 1514 1515 1516 1518 1519 1521 1522 1523 1524 1525 1525 1526 1526 1527 1527 1528 1528 1528 1528 1527 1526 1526 1525 1525 1524 1523 1522 1521 1519 1517 1516 1514 1512 1510 1508 1506 1504 1502 1499 1497 1493 1490 1488 1485 1483 1480 1477 1475 1472 1470 1467 1464 1461 1458 1454 1450 1445 1441 1438 1435 1430 1426 1423 1419 1415 1411 1407
1474 1477 1479 1482 1484 1486 1488 1490 1492 1494 1496 1498 1500 1503 1504 1506 1508 1510 1512 1513 1515 1516 1517 1518 1520 1521 1522 1523 1523 1524 1524 1525 1525 1525 1525 1525 1525 1524 1524 1523 1523 1522 1521 1520 1519 1518 1517 1515 1513 1511 1509 1507 1506 1503 1501 1499 1496 1494 1491 1488 1485 1482 1479 1476 1473 1470 1468 1465 1462 1460 1457 1454 1450 1446 1441 1437 1434 1430 1427 1424 1422 1418 1415 1410 1406
1473 1476 1478 1480 1482 1484 1486 1488 1490 1492 1494 1496 1499 1501 1503 1504 1506 1507 1509 1511 1512 1514 1515 1516 1518 1519 1520 1520 1521 1522 1522 1522 1523 1523 1523 1523 1522 1522 1521 1520 1520 1519 1518 1518 1516 1515 1514 1512 1510 1508 1506 1505 1503 1501 1499 1496 1494 1492 1489 1486 1483 1480 1477 1474 1472 1468 1465 1461 1459 1456 1454 1450 1446 1442 1438 1434 1431 1427 1424 1421 1419 1417 1413 1409 1405
1471 1473 1475 1477 1479 1481 1483 1486 1488 1490 1493 1495 1497 1499 1500 1502 1504 1505 1507 1508 1510 1511 1513 1514 1515 1516 1517 1518 1519 1520 1520 1520 1520 1520 1520 1520 1519 1519 1518 1517 1517 1516 1515 1514 1513 1512 1510 1509 1507 1505 1504 1502 1500 1498 1496 1494 1492 1489 1487 1485 1482 1479 1476 1473 1470 1467 1463 1460 1457 1454 1451 1447 1443 1438 1434 1430 1427 1424 1420 1417 1415 1413 1411 1408 1404
1467 1469 1472 1474 1476 1478 1481 1483 1485 1488 1490 1492 1494 1496 1498 1500 1502 1503 1505 1506 1508 1509 1511 1512 1513 1514 1515 1516 1517 1517 1518 1518 1518 1518 1518 1517 1517 1516 1515 1514 1514 1513 1512 1511 1510 1508 1507 1505 1504 1502 1501 1499 1497 1495 1493 1491 1489 1487 1485 1483 1480 1477 1474 1471 1467 1464 1461 1458 1455 1451 1447 1443 1438 1434 1430 1426 1423 1420 1417 1414 1411 1409 1407 1406 1403
1464 1466 1469 1471 1473 1475 1478 1480 1482 1485 1487 1489 1491 1493 1496 1498 1499 1501 1503 1504 1506 1507 1508 1509 1511 1511 1513 1514 1514 1515 1515 1515 1516 1515 1515 1515 1514 1513 1513 1511 1511 1510 1509 1508 1507 1505 1504 1502 1501 1499 1497 1496 1494 1492 1490 1489 1487 1485 1483 1480 1477 1474 1471 1469 1465 1462 1459 1456 1452 1448 1444 1440 1435 1430 1427 1423 1420 1417 1414 1410 1408 1405 1402 1401 1399
1461 1463 1466 1468 1470 1473 1475 1477 1480 1482 1484 1487 1489 1491 1493 1495 1497 1498 1500 1501 1503 1504 1505 1507 1508 1509 1510 1511 1511 1512 1513 1513 1513 1512 1512 1512 1511 1511 1510 1509 1508 1507 1506 1505 1503 1502 1500 1499 1497 1496 1495 1493 1491 1490 1488 1487 1485 1483 1480 1477 1474 1472 1469 1466 1463 1460 1456 1453 1449 1445 1441 1437 1433 1429 1425 1421 1418 1415 1411 1408 1406 1403 1400 1397 1395
1458 1461 1463 1465 1468 1470 1472 1475 1477 1480 1482 1484 1486 1489 1490 1492 1494 1496 1497 1499 1500 1502 1503 1504 1505 1506 1507 1508 1509 1509 1510 1510 1510 1510 1509 1509 1509 1508 1507 1506 1505 1504 1503 1501 1500 1498 1497 1496 1495 1493 1492 1490 1489 1487 1486 1484 1482 1480 1477 1475 1472 1469 1467 1464 1461 1457 1454 1450 1446 1442 1439 1435 1431 1427 1423 1419 1416 1413 1409 1405 1402 1400 1397 1394 1392
1456 1458 1460 1463 1465 1467 1470 1472 1475 1477 1480 1482 1484 1486 1488 1490 1491 1493 1494 1496 1497 1499 1500 1502 1503 1504 1504 1505 1506 1506 1507 1507 1507 1507 1506 1506 1505 1505 1504 1503 1502 1501 1500 1499 1497 1496 1495 1493 1492 1491 1489 1487 1486 1484 1483 1481 1480 1477 1475 1473 1470 1467 1464 1461 1457 1454 1451 1447 1444 1440 1436 1432 1428 1425 1421 1417 1414 1411 1407 1403 1399 1396 1393 1390 1387
1454 1456 1458 1460 1462 1465 1467 1470 1472 1474 1477 1479 1481 1484 1485 1487 1489 1490 1491 1493 1494 1496 1497 1499 1500 1501 1501 1502 1503 1503 1503 1503 1503 1504 1503 1503 1502 1501 1501 1500 1499 1498 1497 1496 1495 1494 1492 1491 1489 1488 1486 1485 1483 1482 1481 1479 1478 1476 1473 1470 1467 1464 1461 1458 1455 1452 1449 1445 1442 1438 1434 1430 1426 1422 1418 1415 1412 1409 1406 1402 1397 1394 1391 1388 1384
1451 1453 1455 1457 1460 1462 1464 1467 1469 1471 1474 1476 1478 1480 1482 1483 1485 1487 1488 1490 1492 1493 1495 1496 1497 1498 1498 1499 1499 1500 1500 1500 1500 1500 1500 1499 1498 1498 1497 1497 1496 1495 1494 1493 1492 1491 1490 1488 1486 1485 1484 1483 1482 1481 1479 1477 1475 1473 1470 1468 1464 1461 1459 1456 1453 1450 1447 1443 1440 1435 1431 1427 1423 1420 1416 1412 1409 1407 1404 1401 1397 1393 1390 1387 1384
1449 1451 1453 1455 1457 1459 1462 1464 1467 1469 1471 1474 1476 1477 1479 1481 1482 1484 1486 1488 1489 1491 1492 1493 1494 1494 1495 1495 1496 1496 1497 1497 1497 1497 1496 1495 1494 1494 1494 1493 1493 1492 1491 1490 1489 1488 1487 1485 1484 1483 1482 1481 1480 1478 1476 1474 1472 1470 1467 1465 1462 1459 1456 1453 1450 1448 1444 1441 1437 1433 1429 1425 1421 1418 1414 1410 1407 1404 1402 1399 1395 1392 1389 1386 1384
1447 1448 1450 1452 1455 1457 1459 1462 1464 1467 1469 1471 1473 1474 1476 1478 1480 1481 1483 1485 1486 1487 1488 1489 1490 1491 1491 1492 1492 1492 1493 1493 1493 1493 1492 1491 1490 1490 1490 1490 1489 1489 1488 1488 1487 1485 1484 1483 1481 1480 1479 1477 1476 1474 1472 1470 1468 1466 1464 1462 1459 1456 1453 1451 1448 1445 1442 1439 1435 1431 1427 1423 1419 1415 1411 1407 1404 1402 1400 1397 1394 1391 1388 1385 1382
1444 1446 1447 1450 1452 1454 1457 1459 1462 1464 1466 1468 1469 1471 1472 1474 1476 1478 1479 1481 1482 1483 1484 1485 1486 1486 1486 1487 1488 1488 1489 1489 1489 1489 1487 1487 1487 1487 1487 1486 1486 1486 1485 1484 1483 1482 1481 1480 1478 1476 1475 1474 1472 1470 1468 1466 1464 1463 1461 1459 1456 1453 1451 1448 1446 1443 1440 1437 1434 1430 1426 1422 1418 1414 1410 1406 1402 1400 1397 1395 1393 1390 1387 1385 1382
1442 1444 1446 1448 1450 1453 1455 1457 1459 1461 1463 1464 1466 1468 1469 1471 1472 1474 1475 1476 1477 1479 1480 1481 1481 1482 1482 1483 1484 1484 1485 1485 1485 1484 1483 1483 1483 1483 1483 1483 1482 1482 1481 1480 1479 1478 1477 1476 1474 1473 1472 1471 1469 1468 1465 1463 1462 1460 1458 1456 1453 1451 1448 1446 1444 1442 1439 1435 1432 1429 1425 1421 1417 1413 1409 1405 1401 1398 1395 1393 1391 1388 1386 1384 1381
1441 1442 1444 1446 1448 1450 1452 1454 1456 1458 1459 1461 1463 1464 1465 1467 1468 1470 1471 1472 1473 1475 1476 1476 1477 1477 1478 1479 1480 1480 1481 1481 1480 1480 1479 1480 1480 1480 1480 1479 1479 1479 1478 1477 1476 1475 1473 1472 1471 1470 1468 1467 1466 1465 1463 1461 1459 1458 1455 1453 1451 1449 1447 1444 1442 1440 1437 1434 1431 1428 1424 1420 1416 1412 1408 1405 1401 1397 1394 1392 1390 1387 1385 1382 1380
1439 1440 1442 1444 1445 1447 1449 1451 1453 1455 1457 1458 1459 1460 1462 1464 1465 1466 1467 1468 1469 1470 1471 1472 1473 1474 1474 1475 1476 1476 1476 1476 1476 1475 1476 1476 1476 1476 1476 1476 1475 1475 1474 1473 1472 1471 1470 1469 1468 1466 1465 1464 1463 1462 1461 1459 1457 1455 1453 1451 1449 1447 1445 1443 1441 1439 1436 1433 1430 1426 1423 1419 1415 1411 1407 1403 1400 1397 1394 1391 1389 1387 1384 1381 1379
1437 1438 1440 1441 1443 1445 1447 1449 1450 1452 1454 1455 1456 1458 1460 1461 1462 1463 1464 1464 1466 1467 1468 1469 1470 1470 1471 1471 1472 1472 1472 1471 1471 1472 1472 1472 1472 1472 1472 1472 1472 1471 1470 1469 1469 1468 1467 1466 1465 1464 1463 1462 1461 1460 1458 1456 1454 1452 1450 1448 1446 1444 1442 1441 1439 1436 1434 1431 1428 1425 1421 1418 1414 1410 1406 1403 1399 1396 1393 1391 1389 1387 1384 1381 1378
1435 1436 1437 1439 1440 1442 1444 1446 1448 1450 1452 1453 1454 1456 1457 1458 1459 1460 1460 1461 1462 1463 1464 1465 1466 1466 1467 1467 1467 1467 1467 1467 1467 1468 1468 1467 1467 1467 1467 1467 1467 1467 1466 1466 1465 1464 1463 1463 1462 1461 1460 1459 1458 1457 1455 1453 1451 1450 1448 1446 1444 1442 1440 1438 1436 1434 1432 1429 1426 1423 1420 1417 1413 1409 1405 1402 1399 1396 1393 1391 1389 1387 1384 1381 1378
1433 1434 1435 1437 1438 1440 1442 1444 1445 1447 1449 1450 1451 1452 1453 1454 1455 1456 1456 1457 1458 1459 1460 1460 1461 1461 1462 1462 1462 1463 1462 1463 1463 1463 1463 1463 1463 1463 1463 1463 1463 1463 1463 1462 1461 1461 1460 1460 1459 1458 1457 1456 1455 1454 1452 1451 1449 1447 1446 1444 1442 1440 1438 1436 1434 1432 1430 1427 1424 1421 1418 1415 1412 1408 1404 1401 1398 1395 1393 1390 1388 1386 1383 1381 1378
1430 1431 1433 1434 1435 1437 1439 1440 1442 1444 1445 1446 1447 1448 1449 1450 1451 1451 1452 1453 1453 1454 1455 1455 1456 1457 1457 1458 1458 1459 1458 1458 1459 1459 1459 1460 1459 1459 1459 1459 1459 1459 1459 1458 1458 1458 1457 1457 1456 1456 1455 1453 1452 1451 1449 1448 1446 1445 1443 1442 1440 1438 1436 1434 1433 1431 1428 1426 1423 1420 1417 1414 1411 1408 1404 1401 1397 1395 1392 1390 1387 1384 1382 1380 1377
1427 1428 1430 1431 1432 1434 1435 1437 1439 1440 1441 1442 1444 1444 1445 1446 1446 1447 1448 1448 1449 1449 1450 1451 1451 1452 1453 1454 1454 1454 1454 1454 1454 1455 1456 1456 1456 1456 1456 1455 1454 1455 1455 1455 1455 1455 1454 1454 1453 1453 1452 1450 1449 1448 1446 1445 1443 1442 1440 1439 1437 1435 1433 1432 1430 1428 1426 1424 1421 1418 1415 1412 1409 1407 1403 1400 1397 1394 1391 1389 1387 1384 1381 1379 1377
1424 1426 1427 1427 1429 1430 1432 1433 1435 1436 1437 1439 1439 1440 1441 1441 1442 1443 1443 1444 1444 1445 1446 1446 1447 1448 1450 1450 1450 1450 1450 1450 1451 1451 1452 1452 1452 1453 1452 1452 1451 1451 1451 1451 1451 1451 1451 1451 1450 1450 1449 1448 1446 1445 1443 1442 1440 1439 1437 1436 1434 1432 1430 1428 1427 1425 1424 1422 1419 1417 1414 1411 1408 1405 1402 1400 1397 1394 1391 1389 1386 1384 1381 1379 1377
1422 1422 1423 1424 1425 1427 1428 1429 1431 1432 1433 1435 1435 1436 1437 1438 1438 1439 1440 1440 1440 1441 1441 1442 1443 1445 1446 1446 1446 1446 1446 1447 1447 1448 1448 1448 1449 1449 1449 1449 1448 1447 1447 1448 1448 1448 1448 1447 1447 1446 1446 1445 1443 1442 1440 1439 1437 1435 1434 1433 1431 1429 1427 1426 1424 1422 1421 1419 1417 1415 1412 1409 1407 1404 1401 1398 1396 1394 1391 1388 1386 1384 1381 1379 1377
1419 1419 1420 1421 1422 1422 1424 1425 1427 1429 1430 1430 1431 1432 1433 1434 1434 1435 1435 1435 1436 1437 1437 1438 1440 1441 1442 1442 1442 1442 1443 1443 1444 1444 1444 1444 1444 1445 1445 1445 1444 1443 1443 1444 1444 1444 1444 1444 1444 1443 1442 1441 1440 1439 1437 1436 1434 1432 1431 1429 1427 1426 1424 1423 1421 1419 1418 1417 1415 1413 1410 1408 1405 1403 1401 1398 1395 1393 1390 1388 1386 1383 1381 1379 1377
1415 1416 1416 1417 1417 1419 1420 1421 1423 1424 1425 1426 1427 1428 1429 1429 1430 1430 1430 1431 1432 1432 1433 1434 1436 1437 1437 1437 1437 1438 1438 1438 1439 1439 1439 1440 1440 1440 1441 1441 1441 1440 1440 1440 1440 1441 1441 1441 1441 1440 1438 1438 1437 1436 1434 1432 1430 1428 1427 1425 1424 1423 1421 1419 1418 1416 1414 1413 1412 1411 1409 1406 1404 1402 1399 1397 1394 1392 1389 1387 1385 1383 1381 1379 1377
1412 1413 1413 1413 1414 1415 1416 1417 1418 1419 1420 1421 1422 1423 1423 1424 1424 1425 1426 1426 1427 1428 1429 1430 1431 1432 1432 1432 1432 1433 1433 1434 1435 1435 1435 1435 1435 1436 1437 1437 1437 1436 1436 1436 1436 1437 1437 1437 1437 1436 1435 1434 1433 1432 1431 1429 1427 1425 1423 1421 1420 1419 1418 1416 1414 1413 1411 1409 1408 1407 1406 1404 1402 1400 1398 1396 1393 1391 1389 1387 1385 1383 1381 1379 1378
1410 1410 1410 1410 1411 1411 1412 1413 1413 1414 1415 1416 1416 1417 1418 1419 1419 1420 1421 1421 1422 1423 1424 1425 1426 1427 1427 1427 1427 1428 1428 1429 1430 1430 1430 1431 1431 1432 1432 1433 1433 1433 1432 1433 1433 1433 1433 1433 1433 1432 1432 1431 1430 1429 1428 1426 1424 1422 1420 1418 1416 1415 1414 1413 1411 1410 1408 1407 1405 1404 1403 1402 1400 1398 1396 1394 1392 1390 1388 1386 1385 1383 1381 1379 1378
1408 1408 1408 1408 1408 1408 1408 1409 1409 1409 1410 1410 1411 1411 1412 1413 1413 1414 1415 1415 1416 1417 1418 1419 1420 1421 1421 1421 1422 1423 1424 1425 1425 1426 1426 1427 1427 1427 1428 1429 1429 1429 1429 1429 1429 1429 1429 1429 1429 1428 1428 1427 1427 1426 1424 1423 1421 1419 1417 1415 1413 1412 1411 1409 1408 1407 1406 1404 1402 1401 1400 1400 1398 1397 1395 1393 1391 1389 1387 1386 1384 1382 1381 1379 1378
1405 1405 1405 1405 1405 1404 1405 1405 1405 1405 1405 1405 1405 1405 1406 1406 1407 1408 1408 1409 1410 1411 1412 1413 1414 1415 1416 1416 1417 1418 1419 1420 1421 1421 1422 1422 1423 1423 1424 1424 1425 1425 1425 1425 1425 1425 1425 1425 1424 1424 1424 1423 1423 1422 1421 1420 1418 1417 1415 1413 1411 1409 1408 1407 1405 1404 1403 1402 1400 1399 1398 1397 1396 1395 1393 1392 1390 1389 1387 1385 1384 1382 1381 1379 1378
1402 1402 1402 1401 1401 1401 1401 1401 1400 1400 1400 1400 1400 1400 1400 1400 1400 1401 1401 1402 1404 1405 1406 1407 1408 1409 1410 1411 1412 1413 1415 1415 1416 1417 1417 1418 1418 1418 1419 1419 1420 1421 1421 1421 1421 1421 1421 1421 1421 1420 1420 1419 1419 1418 1417 1417 1415 1414 1412 1410 1408 1407 1405 1404 1402 1401 1400 1399 1398 1397 1395 1394 1393 1392 1391 1390 1389 1387 1386 1384 1383 1381 1380 1379 1377
1399 1399 1398 1398 1397 1397 1397 1396 1396 1395 1395 1395 1395 1394 1394 1394 1394 1394 1395 1396 1397 1398 1400 1401 1402 1403 1404 1405 1406 1408 1409 1410 1411 1412 1412 1413 1413 1413 1414 1414 1415 1416 1416 1417 1417 1417 1417 1417 1417 1416 1416 1415 1415 1414 1414 1413 1412 1411 1409 1408 1406 1404 1403 1401 1399 1398 1397 1396 1395 1394 1393 1392 1391 1390 1389 1388 1387 1386 1384 1383 1382 1381 1379 1378 1377
1396 1395 1395 1394 1393 1393 1392 1392 1391 1390 1390 1389 1389 1388 1388 1388 1388 1388 1388 1389 1390 1392 1393 1395 1396 1398 1399 1400 1402 1403 1403 1404 1405 1406 1407 1407 1408 1408 1409 1410 1411 1411 1412 1413 1413 1413 1414 1413 1413 1413 1412 1412 1411 1410 1409 1409 1408 1407 1406 1405 1403 1401 1400 1398 1397 1396 1394 1393 1392 1391 1390 1389 1388 1388 1387 1386 1385 1384 1383 1382 1381 1380 1378 1377 1376
1392 1391 1390 1390 1389 1388 1388 1387 1386 1385 1385 1384 1383 1383 1382 1382 1382 1382 1382 1383 1384 1386 1388 1390 1391 1393 1394 1395 1396 1397 1397 1399 1400 1400 1401 1402 1402 1403 1404 1405 1406 1407 1408 1408 1409 1410 1410 1409 1409 1409 1408 1408 1407 1406 1406 1405 1404 1403 1402 1401 1400 1398 1397 1395 1394 1393 1392 1390 1389 1388 1387 1386 1385 1385 1384 1383 1382 1381 1381 1380 1379 1378 1377 1376 1375